"Pseudo-MPEC" for P11JOvi

Created 2023 Sep 20 2:22:21 UT using Find_Orb

Click here for an explanation of pseudo-MPECs

 
 Astrometry: 
     P11JOvi  C2023 08 20`Ji^P9S#Xq:],gimU%12t+4jc6aBG@e,q%_t704tpVcd1BOxp4n+F51
     P11JOvi  C2023 08 20XWut?kq@1\\;?1ROy'FUDdggme][3B:jqh/b9*tAstrometryv00F51
     P11JOvi  C2023 08 20kPADYA%YvIC=jj\(Lo$@`vbI^-2xCCndA'_Fa6p*S:OjBU_GuyC7F51
     P11JOvi  C2023 08 20#[90nkNk5vUV$oW?+'#^AR(-he\AbtDw3/kY7\nhlredacted;$FF51
     P11JOvi  C2023 09 09a[elbh**A3H(Ug?v)9u^L_ub-c.2coGN;0=n83p@B]_r@RG3+Lr[F51
     P11JOvi  C2023 09 095Zxwlbm96b#SbqEOAfqX%DxXkykQ%=2nw0lCL97c!np@ma\?@acrF51
     P11JOvi  C2023 09 09s.Kd_Q\qyY\kW.*HK`v$\lKDNclickj5-6/bM!m/MlCc8TKvw\M:F51
     P11JOvi  C2023 09 09U?fSm0q\aEZIs5p\=Y%U3QQi(hbU(=NHpAYgWQ(#1RPfhere=?FBF51
     P11JOvi* C2023 09 17t3M#/n?P\lS,g2MEcUNaR(dE)BXRo^/%,NC\djfor5JW!wV,XFn0F51
     P11JOvi  C2023 09 17O2)N;GpMyf1bE=6hTT2C$jyUqbYr0CGBLu7tleM2P6WHy52y9VRIF51
     P11JOvi  C2023 09 17VJ1ivA3C=9rT3?;*J+are;N''n]Z=m^N7ZIJWfc)tQHnF,QnjcqjF51
     P11JOvi  C2023 09 17Ee'Y(t=01Q35.SS8M^:u*Fm5n]+W!!!A(Z#WR3B)XlSe*[Ix0SD$F51
     P11JOvi  C2023 09 17BmaM$=*rK.,)e^.Bq@4$explanation+r9.pJ;n(]aid@`HFXt.eF51
     P11JOvi KC2023 09 18.25431500 05 55.158-04 22 33.53   ~9I6q 21.98GVNEOCPI52
     P11JOvi KC2023 09 18.26715400 05 54.236-04 22 40.51   ~9I6qx      VNEOCPI52

Station data:
(F51) Pan-STARRS 1, Haleakala  (N20.707234 W156.255910)  US/Hawaii.
   Observers J. Bulger, T. Lowe, A. Schultz, M. Willman. Measurers K.
   Chambers, S. Chastel, T. de Boer, L. Denneau, J. Fairlamb, H. Flewelling,
   M. Huber, C.-C. Lin, E. Magnier, Y. Ramanjooloo, R. Wainscoat, R. Weryk.
   1.8-m Ritchey-Chrétien + CCD.
(I52) Steward Observatory, Mt. Lemmon Station  (N32.442544 W110.788920)
   US/Arizona.  Observers T. A. Pruyne, B. M. Africano, E. J. Christensen, G.
   A. Farneth, D. C. Fuls, A. R. Gibbs, A. D. Grauer, H. Gröller, J. A.
   Johnson, R. A. Kowalski, S. M. Larson, G. J. Leonard, D. Rankin, R. L.
   Seaman, F. C. Shelly, K. W. Wierzchoś. 1.0-m prime focus + CCD.

Orbital elements:  P11JOvi
   Perihelion 2024 Jan 9.65749 +/- 0.0197 TT = 15:46:47 (JD 2460319.15749)
Epoch 2023 Sep 18.0 TT = JDT 2460205.5   Earth MOID: 0.0184   Ma: 0.0195
M 331.01995694 +/- 0.036            (J2000 ecliptic)             AutoNEOCP
n   0.25497697 +/- 0.000282         Peri.    0.83211 +/- 0.006
a   2.46302456 +/- 0.00182          Node    96.72153 +/- 0.006
e   0.6276306 +/- 0.000368          Incl.    1.90267 +/- 0.00029
P   3.87                   H 20.73  G  0.15   U  7.3
q 0.91715487 +/- 0.000231    Q 4.00889424 +/- 0.00386
14 of 15 observations 2023 Aug. 20-Sept. 18; mean residual 0".16
Residuals in arcseconds: 
230820 F51  .01+  .19-    230909 F51  .43+  .04+    230917 F51  .07-  .02+    
230820 F51  .34+  .10+    230909 F51  .26-  .06-    230917 F51  .05+  .05-    
230820 F51  .27-  .06+    230909 F51  .08-  .03+    230917 F51  .04-  .02+    
230820 F51  .09-  .02+    230917 F51  .01+  .11+    230918 I52  .35+  .25-    
230909 F51  .08-  .00     230917 F51  .06-  .03-    230918 I52( 1.5+  1.1+)   

Ephemerides (geocentric):
Date (UTC) HH   RA             Dec           delta  r     elong  mag " sig PA
---- --------  ------------   ------------  ------ ------ -----  --- --------
2023 09 20 02  00 03 36.255   -04 42 37.90  .67338 1.6762 174.7 21.3 .163  11
2023 09 20 03  00 03 33.003   -04 43 06.02  .67301 1.6758 174.8 21.3 .166  11
2023 09 20 04  00 03 29.747   -04 43 34.18  .67264 1.6755 174.8 21.3 .168  11
2023 09 20 05  00 03 26.487   -04 44 02.35  .67228 1.6751 174.8 21.3 .171  12
2023 09 20 06  00 03 23.223   -04 44 30.54  .67191 1.6747 174.8 21.3 .173  12
2023 09 20 07  00 03 19.955   -04 44 58.76  .67155 1.6744 174.9 21.3 .176  12
2023 09 20 08  00 03 16.682   -04 45 27.00  .67118 1.6740 174.9 21.3 .179  13
2023 09 20 09  00 03 13.406   -04 45 55.26  .67082 1.6737 174.9 21.3 .181  13
2023 09 20 10  00 03 10.125   -04 46 23.55  .67045 1.6733 174.9 21.3 .184  13
2023 09 20 11  00 03 06.840   -04 46 51.85  .67009 1.6729 174.9 21.3 .187  14
2023 09 20 12  00 03 03.552   -04 47 20.18  .66973 1.6726 175.0 21.3 .190  14
2023 09 20 13  00 03 00.259   -04 47 48.53  .66936 1.6722 175.0 21.3 .192  14
2023 09 20 14  00 02 56.961   -04 48 16.90  .66900 1.6718 175.0 21.3 .195  14
2023 09 20 15  00 02 53.660   -04 48 45.29  .66864 1.6715 175.0 21.3 .198  15
2023 09 20 16  00 02 50.355   -04 49 13.70  .66828 1.6711 175.0 21.3 .201  15
2023 09 20 17  00 02 47.045   -04 49 42.14  .66792 1.6708 175.0 21.3 .204  15
2023 09 20 18  00 02 43.732   -04 50 10.59  .66755 1.6704 175.1 21.3 .207  16
2023 09 20 19  00 02 40.414   -04 50 39.07  .66719 1.6700 175.1 21.3 .210  16
2023 09 20 20  00 02 37.093   -04 51 07.57  .66683 1.6697 175.1 21.3 .213  16
2023 09 20 21  00 02 33.767   -04 51 36.09  .66647 1.6693 175.1 21.3 .216  17
2023 09 20 22  00 02 30.437   -04 52 04.63  .66611 1.6689 175.1 21.3 .219  17
2023 09 20 23  00 02 27.103   -04 52 33.20  .66575 1.6686 175.1 21.3 .222  17
2023 09 21 00  00 02 23.765   -04 53 01.78  .66540 1.6682 175.1 21.3 .225  17
2023 09 21 01  00 02 20.423   -04 53 30.39  .66504 1.6679 175.2 21.3 .228  18
2023 09 21 02  00 02 17.077   -04 53 59.01  .66468 1.6675 175.2 21.3 .231  18
2023 09 21 03  00 02 13.727   -04 54 27.66  .66432 1.6671 175.2 21.2 .234  18
2023 09 21 04  00 02 10.373   -04 54 56.33  .66396 1.6668 175.2 21.2 .237  18
2023 09 21 05  00 02 07.015   -04 55 25.02  .66361 1.6664 175.2 21.2 .241  19
2023 09 21 06  00 02 03.653   -04 55 53.73  .66325 1.6660 175.2 21.2 .244  19
2023 09 21 07  00 02 00.286   -04 56 22.46  .66289 1.6657 175.2 21.2 .247  19
2023 09 21 08  00 01 56.916   -04 56 51.21  .66254 1.6653 175.2 21.2 .250  19
2023 09 21 09  00 01 53.542   -04 57 19.98  .66218 1.6649 175.2 21.2 .254  20
2023 09 21 10  00 01 50.164   -04 57 48.77  .66183 1.6646 175.2 21.2 .257  20
2023 09 21 11  00 01 46.781   -04 58 17.59  .66147 1.6642 175.2 21.2 .260  20
2023 09 21 12  00 01 43.395   -04 58 46.42  .66112 1.6639 175.2 21.2 .264  20
2023 09 21 13  00 01 40.005   -04 59 15.28  .66077 1.6635 175.2 21.2 .267  21
2023 09 21 14  00 01 36.610   -04 59 44.15  .66041 1.6631 175.2 21.2 .270  21
2023 09 21 15  00 01 33.212   -05 00 13.04  .66006 1.6628 175.2 21.2 .274  21
2023 09 21 16  00 01 29.810   -05 00 41.96  .65971 1.6624 175.2 21.2 .277  21
2023 09 21 17  00 01 26.403   -05 01 10.89  .65935 1.6620 175.2 21.2 .281  21
2023 09 21 18  00 01 22.993   -05 01 39.85  .65900 1.6617 175.2 21.2 .284  22
2023 09 21 19  00 01 19.579   -05 02 08.83  .65865 1.6613 175.2 21.2 .288  22
2023 09 21 20  00 01 16.161   -05 02 37.82  .65830 1.6609 175.2 21.2 .292  22
2023 09 21 21  00 01 12.739   -05 03 06.84  .65795 1.6606 175.2 21.2 .295  22
2023 09 21 22  00 01 09.313   -05 03 35.87  .65760 1.6602 175.2 21.2 .299  22
2023 09 21 23  00 01 05.883   -05 04 04.93  .65725 1.6599 175.2 21.2 .302  23
2023 09 22 00  00 01 02.449   -05 04 34.00  .65690 1.6595 175.2 21.2 .306  23
2023 09 22 01  00 00 59.011   -05 05 03.10  .65655 1.6591 175.2 21.2 .310  23